Terminal Aerodrome Forecast
Issued by NWS

Home | Current Version | Previous Version | Text Only | Print | Product List | Glossary On
Versions: 1 2 3 4 5 6 7 8 9 10 11 12 13 14 15 16 17 18 19 20
000
FTUS43 KDVN 181800 AAA
TAFBRL
TAF AMD
KBRL 181837Z 1819/1918 34010KT P6SM OVC035
     FM190000 VRB03KT P6SM SKC
     FM191500 21009KT P6SM SCT150=

USA.gov is the U.S. government's official web portal to all federal, state and local government web resources and services.